Location: Arbon
(43.0005°N, 0.7472°E)
Time: 21:18:55
(UTC+00:00)

Altair - Pass Details

Date: 01 December 2020
Orbit: 1501 x 1682 km, 47.2° (Epoch: 26 January)

Event Time Altitude Azimuth Distance (km) Brightness Sun altitude
Rises 19:19:51 0° 226° (SW) 4,760 10.7 -31.6°
Reaches altitude 10° 19:23:00 10° 224° (SW) 3,753 10.0 -32.2°
Enters shadow 19:32:01 63° 153° (SSE) 1,676 7.4 -33.8°
Maximum altitude 19:32:16 63° 146° (SE) 1,673 - -33.9°
Drops below altitude 10° 19:41:18 10° 68° (ENE) 3,663 - -35.5°
Sets 19:44:20 0° 65° (ENE) 4,640 - -36.1°
